This is the latest recevied weather packets stored in our database for station/object NK7I. If no packets are shown the sender has not sent any weather packets the latest 1 day(s).
| Time | Temp. | Humidity | Pressure | Rain* | Wind** | Luminosity | Snow |
|---|---|---|---|---|---|---|---|
| 1778040383 | 14.44° C | 49% | 1010.5 hPa | 0 mm | - | 0 W/m² | - |
| 1778040083 | 14.44° C | 50% | 1010.5 hPa | 0 mm | - | 0 W/m² | - |
| 1778039783 | 15° C | 52% | 1010.4 hPa | 0 mm | - | 0 W/m² | - |
| 1778039483 | 15° C | 52% | 1010.3 hPa | 0 mm | - | 0 W/m² | - |
| 1778039183 | 15.56° C | 48% | 1010.2 hPa | 0 mm | - | 0 W/m² | - |
| 1778038884 | 15.56° C | 46% | 1010 hPa | 0 mm | - | 0 W/m² | - |
| 1778038583 | 15.56° C | 46% | 1010 hPa | 0 mm | - | 0 W/m² | - |
| 1778038283 | 16.11° C | 45% | 1010 hPa | 0 mm | - | 0 W/m² | - |
| 1778037983 | 16.11° C | 45% | 1009.8 hPa | 0 mm | - | 0 W/m² | - |
| 1778037683 | 16.67° C | 48% | 1009.7 hPa | 0 mm | - | 0 W/m² | - |
| 1778037383 | 17.78° C | 46% | 1009.7 hPa | 0 mm | - | 0 W/m² | - |
| 1778036783 | 18.89° C | 42% | 1009.6 hPa | 0 mm | - | 5 W/m² | - |
| 1778036483 | 19.44° C | 34% | 1009.5 hPa | 0 mm | - | 7 W/m² | - |
| 1778036183 | 20° C | 34% | 1009.5 hPa | 0 mm | - | 9 W/m² | - |
| 1778035883 | 20° C | 33% | 1009.5 hPa | 0 mm | - | 11 W/m² | - |
| 1778035583 | 20.56° C | 33% | 1009.5 hPa | 0 mm | - | 12 W/m² | - |
| 1778035283 | 20.56° C | 32% | 1009.4 hPa | 0 mm | - | 16 W/m² | - |
| 1778034983 | 21.11° C | 33% | 1009.4 hPa | 0 mm | - | 19 W/m² | - |
| 1778034683 | 21.11° C | 34% | 1009.3 hPa | 0 mm | - | 21 W/m² | - |
| 1778034383 | 21.11° C | 35% | 1009.3 hPa | 0 mm | - | 26 W/m² | - |
| 1778034083 | 21.11° C | 34% | 1009.3 hPa | 0 mm | - | 30 W/m² | - |
| 1778033783 | 21.11° C | 32% | 1009.3 hPa | 0 mm | - | 33 W/m² | - |
| 1778033483 | 21.67° C | 32% | 1009.2 hPa | 0 mm | - | 47 W/m² | - |
| 1778033183 | 22.22° C | 30% | 1009.2 hPa | 0 mm | - | 39 W/m² | - |
| 1778032584 | 22.22° C | 31% | 1009.3 hPa | 0 mm | - | 60 W/m² | - |
* Rain latest hour (hover to see other rain measurements)
** Current wind speed in m/s (hover to see current wind gust speed)